Regional Weather Roundup
Issued by NWS

Home | Current Version | Previous Version | Text Only | Print | Product List | Glossary Off
Versions: 1 2 3 4 5 6 7 8 9 10 11 12 13 14 15 16 17 18 19 20 21 22 23 24 25 26 27 28 29 30 31 32 33 34 35 36 37 38 39 40 41 42 43 44 45 46 47 48 49 50

000
ASUS45 KTFX 280910
RWRMT
MONTANA REGIONAL WEATHER ROUNDUP
NATIONAL WEATHER SERVICE GREAT FALLS MT
300 AM MDT THU JUL 28 2016

NOTE: "FAIR" INDICATES FEW OR NO CLOUDS BELOW 12000 FEET WITH NO
SIGNIFICANT WEATHER AND/OR OBSTRUCTIONS TO VISIBILITY.

MTZ001>007-043-281000-
WEST OF THE DIVIDE

CITY           SKY/WX    TMP DP  RH WIND       PRES   REMARKS
KALISPELL      CLEAR     61  54  77 N15       30.12F
MISSOULA       CLEAR     66  47  50 NW3       30.13S
BUTTE          CLEAR     55  45  68 E6        30.25F
MULLAN PASS    CLEAR     64  42  44 N3        30.27F
ANACONDA         N/A     55  46  71 S5        30.23F
DEER LODGE       N/A     61  52  72 W9        30.25R
EUREKA           N/A     55  54  94 CALM      30.15F
HAMILTON         N/A     59  48  67 CALM      30.14S
LIBBY            N/A     61  50  67 CALM      30.13S
PLAINS           N/A     61  57  86 CALM      30.12S
RONAN            N/A     65  52  62 N3        30.16S
$$

MTZ008-052>055-281000-
SOUTHWEST MONTANA

CITY           SKY/WX    TMP DP  RH WIND       PRES   REMARKS
BOZEMAN        PTCLDY    63  53  70 S9        30.20R
DILLON         CLEAR     56  49  77 SE5       30.20F
W YELLOWSTONE  CLOUDY    50  45  81 CALM      30.32S
ENNIS          CLEAR     54  43  66 VRB5      30.27S
THREE FORKS      N/A     60  49  67 CALM      30.16S
TWIN BRIDGES     N/A     65  46  50 N5        30.16S
$$

MTZ009-010-012-014-046-048-049-054-281000-
EAST SLOPES AND CENTRAL MONTANA

CITY           SKY/WX    TMP DP  RH WIND       PRES   REMARKS
CUT BANK       MOCLDY    56  53  90 N10       30.18F
GREAT FALLS    LGT RAIN  58  49  72 SW5       30.19F
MALMSTROM AFB  MOCLDY    61  55  82 NW7       30.19F
HELENA         PTCLDY    65  52  62 W10       30.21R
CHOTEAU          N/A     63  55  77 SW12      30.20F
CONRAD           N/A     58  58 100 S5        30.18S
$$

MTZ011-013-016-021-045-047-050-051-281000-
NORTH CENTRAL MONTANA

CITY           SKY/WX    TMP DP  RH WIND       PRES   REMARKS
HAVRE          CLEAR     59  55  87 E9        30.15F
N BAR RANCH      N/A     52  50  93 CALM      30.26F
CHINOOK          N/A     57  57 100 E3        30.16F
$$

MTZ017>020-022>027-061-062-281000-
NORTHEAST MONTANA

CITY           SKY/WX    TMP DP  RH WIND       PRES   REMARKS
GLASGOW        PTCLDY    60  57  89 NE8       30.15F
JORDAN           N/A     58  57  97 N5        30.15F
SIDNEY         CLOUDY    62  61  96 NE8       30.13F
WOLF POINT     PTCLDY    61  58  90 NE7       30.15F
PLENTYWOOD       N/A     57  57 100 NE5       30.17F
SCOBEY           N/A     49  37  63 CALM      30.16F
$$

MTZ028>42-056>058-281000-
SOUTHCENTRAL AND SOUTHEAST MONTANA

CITY           SKY/WX    TMP DP  RH WIND       PRES   REMARKS
BAKER          HVY RAIN  59  58  96 N10       30.16S FOG
BILLINGS       CLOUDY    66  58  75 N7        30.19F THUNDER
LIVINGSTON     CLOUDY    61  55  81 E17       30.23F
MILES CITY     PTCLDY    61  57  87 N8        30.11F
EKALAKA          N/A     59  56  89 NW9       30.11S
FORSYTH          N/A     63  63 100 CALM      30.12F
LAUREL           N/A     62  56  81 W1        30.17S
ROUNDUP          N/A     60  55  83 MISG      30.08F
$$

REGIONAL REPORTS...DAKOTAS

CITY           SKY/WX    TMP DP  RH WIND       PRES   REMARKS
WILLISTON      CLOUDY    65  60  84 E9        30.16S
MINOT          CLOUDY    62  57  83 NE5       30.15S
DICKINSON      FOG       57  57 100 E3        30.12S VSB 1/4
BEACH            N/A     57  57 100 SW3       30.16F
CROSBY         MOCLDY    54  54 100 NE5       30.19F
WATFORD CITY     N/A    N/A N/A N/A MISG        N/A
BISMARCK       CLOUDY    64  60  87 E6        30.13S
GRAND FORKS    PTCLDY    59  57  93 N8        30.09S
FARGO          CLOUDY    63  60  90 N5        30.06S
BUFFALO SD       N/A     60  59  96 NE8       30.06F
RAPID CITY     CLOUDY    63  58  83 SW5       30.13R
$$

REGIONAL REPORTS...WYOMING/IDAHO/WASHINGTON

CITY           SKY/WX    TMP DP  RH WIND       PRES   REMARKS
GILLETTE       CLOUDY    60  57  89 S12       30.16F
SHERIDAN       CLOUDY    63  56  78 S8        30.15F
BUFFALO WY     CLOUDY    63  53  70 NW9       30.21F
CODY           CLOUDY    61  52  72 NW5       30.27R
YELLOWSTONE LA   N/A     48  46  93 CALM      30.41F
IDAHO FALLS    CLOUDY    58  46  64 NW6       30.13R
SALMON         CLEAR     57  45  62 CALM      30.11R
BOISE          CLEAR     71  48  43 S5        30.00R
SPOKANE        CLEAR     69  47  45 CALM      30.06R
$$

REGIONAL REPORTS...ALBERTA

CITY           SKY/WX    TMP DP  RH WIND       PRES   REMARKS
EDMONTON       PTCLDY    59  55  88 SW5       30.12F
CALGARY        PTCLDY    57  52  82 NW2       30.19F
LETHBRIDGE     CLOUDY    61  59  94 S8        30.15F
MEDICINE HAT   CLEAR     61  57  88 S3        30.13F
WATERTON GATE    N/A     46  45  93 NW1         N/A
CARDSTON         N/A     52  48  87 CALM        N/A
MILK RIVER       N/A     57  55  94 S1          N/A
$$

REGIONAL REPORTS...SASKATCHEWAN

CITY           SKY/WX    TMP DP  RH WIND       PRES   REMARKS
SWIFT CURRENT  CLEAR     54  50  87 SE7       30.16F
REGINA         CLEAR     55  52  88 SE7       30.18S
SASKATOON      CLEAR     57  55  94 S3        30.16F
CYPRESS HILLS    N/A     55  52  88 S3          N/A
VAL MARIE        N/A     50  48  93 NE3         N/A
ROCKGLEN         N/A     55  52  88 E3          N/A
ASSINIBOIA       N/A     59  59 100 W5          N/A
$$



USA.gov is the U.S. government's official web portal to all federal, state and local government web resources and services.